Location: Banksville Park
(38.5557°N, 75.1182°W)
Time: 12:28:26
(UTC+00:00)

Cosmos 2263 Rocket - Pass Details

Date: 19 September 2020
Orbit: 822 x 849 km, 71.0° (Epoch: 23 October)

Event Time Altitude Azimuth Distance (km) Brightness Sun altitude
Rises 09:27:56 0° 335° (NNW) 3,398 5.2 -15.9°
Reaches altitude 10° 09:30:23 10° 334° (NNW) 2,464 4.5 -15.4°
Maximum altitude 09:36:02 77° 250° (WSW) 871 2.1 -14.4°
Drops below altitude 10° 09:41:41 10° 165° (SSE) 2,463 4.7 -13.3°
Sets 09:44:07 0° 164° (SSE) 3,396 5.4 -12.8°
